FIN20G EFKT-EFHK

Flight info

Callsign FIN20G
Flight time 1h 7m
Altitude 37000
Route TUGPU DCT RENVI Y86 LUSEP
Aircraft A321/M-SDE1E2E3FGIJ1M1RWXYZ/LB1

Departure

Time 2026-04-18 10:49
Airport Kittilä International Airport (EFKT)

Arrival

Time 2026-04-18 11:57
Airport Helsinki Vantaa Airport (EFHK)
Time Latitude Longitude Altitude Speed Heading
2026-04-18 10:01 67.69541 24.85689 640 ft 0 kts 123°
2026-04-18 10:42 67.69534 24.85691 640 ft 1 kts 177°
2026-04-18 10:43 67.69527 24.85676 644 ft 2 kts 218°
2026-04-18 10:43 67.69526 24.85617 644 ft 4 kts 275°
2026-04-18 10:43 67.69528 24.85553 643 ft 4 kts 275°
2026-04-18 10:43 67.69530 24.85476 643 ft 5 kts 275°
2026-04-18 10:44 67.69525 24.85337 645 ft 8 kts 255°
2026-04-18 10:44 67.69511 24.85202 645 ft 7 kts 257°
2026-04-18 10:44 67.69519 24.85093 644 ft 6 kts 308°
2026-04-18 10:44 67.69595 24.85017 640 ft 16 kts 345°
2026-04-18 10:45 67.69705 24.84943 645 ft 16 kts 346°
2026-04-18 10:45 67.69807 24.84878 641 ft 14 kts 346°
2026-04-18 10:45 67.69896 24.84819 643 ft 12 kts 346°
2026-04-18 10:45 67.69975 24.84766 641 ft 14 kts 346°
2026-04-18 10:46 67.70103 24.84682 640 ft 23 kts 347°
2026-04-18 10:46 67.70259 24.84588 642 ft 23 kts 346°
2026-04-18 10:46 67.70410 24.84484 643 ft 22 kts 346°
2026-04-18 10:46 67.70557 24.84390 645 ft 21 kts 346°
2026-04-18 10:47 67.70697 24.84298 644 ft 20 kts 346°
2026-04-18 10:47 67.70834 24.84210 642 ft 20 kts 346°
2026-04-18 10:47 67.70967 24.84124 643 ft 19 kts 345°
2026-04-18 10:47 67.71080 24.84048 641 ft 11 kts 352°
2026-04-18 10:48 67.71149 24.84071 642 ft 9 kts
2026-04-18 10:48 67.71164 24.84002 642 ft 3 kts 227°
2026-04-18 10:48 67.71138 24.84010 642 ft 5 kts 165°
2026-04-18 10:48 67.71096 24.84039 641 ft 12 kts 166°
2026-04-18 10:49 67.70785 24.84243 639 ft 85 kts 166°
2026-04-18 10:49 67.69991 24.84768 643 ft 147 kts 166°
2026-04-18 10:49 67.68962 24.85457 1290 ft 148 kts 163°
2026-04-18 10:49 67.68003 24.86346 2104 ft 151 kts 154°
2026-04-18 10:50 67.67000 24.87611 2585 ft 168 kts 155°
2026-04-18 10:50 67.65878 24.88957 3024 ft 185 kts 155°
2026-04-18 10:50 67.64662 24.90419 3490 ft 200 kts 156°
2026-04-18 10:50 67.63339 24.92029 3820 ft 221 kts 155°
2026-04-18 10:51 67.61852 24.93849 4193 ft 247 kts 154°
2026-04-18 10:51 67.60270 24.95806 4985 ft 255 kts 154°
2026-04-18 10:51 67.58660 24.97801 5878 ft 258 kts 154°
2026-04-18 10:51 67.57022 24.99820 6721 ft 263 kts 154°
2026-04-18 10:52 67.55345 25.01871 7490 ft 268 kts 154°
2026-04-18 10:52 67.53636 25.03947 8256 ft 273 kts 154°
2026-04-18 10:52 67.51901 25.06053 9018 ft 277 kts 154°
2026-04-18 10:52 67.50140 25.08189 9778 ft 281 kts 153°
2026-04-18 10:53 67.48380 25.10325 10501 ft 285 kts 153°
2026-04-18 10:53 67.46531 25.12562 10803 ft 304 kts 153°
2026-04-18 10:53 67.44537 25.14964 10945 ft 326 kts 153°
2026-04-18 10:53 67.42428 25.17496 11334 ft 338 kts 153°
2026-04-18 10:54 67.40271 25.20072 11942 ft 343 kts 153°
2026-04-18 10:54 67.38087 25.22675 12579 ft 347 kts 153°
2026-04-18 10:54 67.35883 25.25303 13216 ft 351 kts 153°
2026-04-18 10:54 67.33649 25.27966 13851 ft 355 kts 153°
2026-04-18 10:55 67.31391 25.30648 14444 ft 359 kts 153°
2026-04-18 10:55 67.29054 25.32837 14979 ft 365 kts 163°
2026-04-18 10:55 67.26526 25.33887 15521 ft 371 kts 174°
2026-04-18 10:55 67.23934 25.34322 16088 ft 375 kts 174°
2026-04-18 10:56 67.21315 25.34762 16628 ft 379 kts 174°
2026-04-18 10:56 67.18672 25.35203 17182 ft 382 kts 173°
2026-04-18 10:56 67.16001 25.35654 17676 ft 387 kts 173°
2026-04-18 10:56 67.13296 25.36113 18205 ft 390 kts 173°
2026-04-18 10:57 67.10568 25.36572 18716 ft 394 kts 173°
2026-04-18 10:57 67.07819 25.37033 19165 ft 397 kts 173°
2026-04-18 10:57 67.05050 25.37495 19607 ft 400 kts 173°
2026-04-18 10:57 67.02265 25.37969 20035 ft 403 kts 172°
2026-04-18 10:58 66.99460 25.38443 20447 ft 406 kts 172°
2026-04-18 10:58 66.96631 25.38913 20850 ft 408 kts 172°
2026-04-18 10:58 66.93820 25.39369 21241 ft 411 kts 172°
2026-04-18 10:58 66.90954 25.39831 21635 ft 413 kts 172°
2026-04-18 10:59 66.88075 25.40301 22024 ft 416 kts 172°
2026-04-18 10:59 66.85175 25.40780 22428 ft 419 kts 171°
2026-04-18 10:59 66.82261 25.41265 22822 ft 421 kts 171°
2026-04-18 10:59 66.79326 25.41749 23224 ft 424 kts 171°
2026-04-18 11:00 66.76374 25.42232 23625 ft 426 kts 171°
2026-04-18 11:00 66.73393 25.42713 24016 ft 429 kts 171°
2026-04-18 11:00 66.70406 25.43201 24349 ft 432 kts 171°
2026-04-18 11:00 66.67399 25.43688 24686 ft 434 kts 171°
2026-04-18 11:01 66.64375 25.44177 25026 ft 436 kts 171°
2026-04-18 11:01 66.61341 25.44672 25375 ft 438 kts 171°
2026-04-18 11:01 66.58289 25.45170 25712 ft 440 kts 171°
2026-04-18 11:02 66.52139 25.46153 26408 ft 445 kts 170°
2026-04-18 11:02 66.49073 25.46643 26682 ft 449 kts 170°
2026-04-18 11:02 66.45907 25.47151 26989 ft 452 kts 170°
2026-04-18 11:02 66.42803 25.47646 27313 ft 454 kts 171°
2026-04-18 11:03 66.39643 25.48139 27631 ft 456 kts 171°
2026-04-18 11:03 66.36468 25.48634 27944 ft 458 kts 170°
2026-04-18 11:03 66.33282 25.49139 28251 ft 460 kts 170°
2026-04-18 11:03 66.30081 25.49651 28560 ft 462 kts 170°
2026-04-18 11:04 66.26864 25.50169 28866 ft 464 kts 170°
2026-04-18 11:04 66.23632 25.50683 29170 ft 467 kts 170°
2026-04-18 11:04 66.20383 25.51200 29452 ft 469 kts 170°
2026-04-18 11:04 66.17123 25.51715 29726 ft 471 kts 170°
2026-04-18 11:05 66.13848 25.52227 29998 ft 473 kts 170°
2026-04-18 11:05 66.10556 25.52740 30249 ft 474 kts 170°
2026-04-18 11:05 66.07248 25.53155 30468 ft 479 kts 174°
2026-04-18 11:05 66.03902 25.52961 30678 ft 482 kts 176°
2026-04-18 11:06 66.00548 25.52739 30869 ft 483 kts 176°
2026-04-18 11:06 65.97187 25.52525 31140 ft 482 kts 176°
2026-04-18 11:06 65.93834 25.52323 31408 ft 482 kts 176°
2026-04-18 11:06 65.90485 25.52128 31668 ft 481 kts 176°
2026-04-18 11:07 65.87132 25.51935 31940 ft 481 kts 176°
2026-04-18 11:07 65.83788 25.51742 32207 ft 481 kts 176°
2026-04-18 11:07 65.80444 25.51552 32469 ft 480 kts 177°
2026-04-18 11:07 65.77137 25.51362 32729 ft 480 kts 177°
2026-04-18 11:08 65.73802 25.51164 32986 ft 480 kts 177°
2026-04-18 11:08 65.70464 25.50962 33244 ft 480 kts 177°
2026-04-18 11:08 65.67128 25.50761 33494 ft 480 kts 178°
2026-04-18 11:08 65.63788 25.50561 33755 ft 479 kts 178°
2026-04-18 11:09 65.60458 25.50364 34010 ft 479 kts 178°
2026-04-18 11:09 65.57124 25.50161 34266 ft 479 kts 178°
2026-04-18 11:09 65.53799 25.49959 34502 ft 478 kts 178°
2026-04-18 11:09 65.50470 25.49758 34695 ft 478 kts 178°
2026-04-18 11:10 65.47145 25.49560 34882 ft 478 kts 178°
2026-04-18 11:10 65.43820 25.49366 35073 ft 478 kts 178°
2026-04-18 11:10 65.40491 25.49175 35258 ft 478 kts 178°
2026-04-18 11:10 65.37163 25.48985 35426 ft 478 kts 179°
2026-04-18 11:11 65.33835 25.48792 35590 ft 479 kts 179°
2026-04-18 11:11 65.30552 25.48606 35764 ft 479 kts 179°
2026-04-18 11:11 65.27222 25.48418 35930 ft 479 kts 179°
2026-04-18 11:11 65.23887 25.48228 36099 ft 479 kts 179°
2026-04-18 11:12 65.20557 25.48035 36268 ft 479 kts 179°
2026-04-18 11:12 65.17221 25.47842 36431 ft 479 kts 179°
2026-04-18 11:12 65.13893 25.47653 36591 ft 479 kts 179°
2026-04-18 11:12 65.10562 25.47461 36746 ft 479 kts 179°
2026-04-18 11:13 65.07231 25.47267 36924 ft 478 kts 179°
2026-04-18 11:13 65.03901 25.47074 37054 ft 479 kts 179°
2026-04-18 11:13 65.00565 25.46885 37189 ft 479 kts 180°
2026-04-18 11:13 64.97236 25.46697 37354 ft 479 kts 180°
2026-04-18 11:14 64.90569 25.46322 37409 ft 479 kts 180°
2026-04-18 11:14 64.83952 25.45951 37411 ft 478 kts 180°
2026-04-18 11:15 64.77297 25.45575 37408 ft 478 kts 180°
2026-04-18 11:15 64.70639 25.45188 37405 ft 478 kts 180°
2026-04-18 11:16 64.63972 25.44816 37398 ft 479 kts 180°
2026-04-18 11:16 64.57304 25.44446 37403 ft 480 kts 180°
2026-04-18 11:17 64.50622 25.44065 37408 ft 480 kts 180°
2026-04-18 11:17 64.43942 25.43703 37407 ft 480 kts 180°
2026-04-18 11:18 64.37250 25.43347 37415 ft 481 kts 180°
2026-04-18 11:18 64.30606 25.42997 37408 ft 481 kts 180°
2026-04-18 11:19 64.23915 25.42619 37395 ft 480 kts 180°
2026-04-18 11:19 64.17226 25.42255 37393 ft 481 kts 180°
2026-04-18 11:20 64.10532 25.41895 37391 ft 481 kts 180°
2026-04-18 11:20 64.03825 25.41541 37394 ft 482 kts 180°
2026-04-18 11:21 63.97125 25.41183 37384 ft 482 kts 180°
2026-04-18 11:21 63.90415 25.40836 37386 ft 482 kts 180°
2026-04-18 11:22 63.83749 25.40500 37384 ft 482 kts 180°
2026-04-18 11:22 63.77047 25.40153 37382 ft 482 kts 180°
2026-04-18 11:23 63.70335 25.39812 37378 ft 482 kts 180°
2026-04-18 11:23 63.63627 25.39447 37370 ft 482 kts 181°
2026-04-18 11:24 63.56918 25.39077 37374 ft 482 kts 181°
2026-04-18 11:24 63.50211 25.38737 37396 ft 483 kts 180°
2026-04-18 11:25 63.43488 25.38407 37382 ft 483 kts 180°
2026-04-18 11:25 63.36807 25.38084 37378 ft 484 kts 180°
2026-04-18 11:26 63.30071 25.37730 37367 ft 484 kts 181°
2026-04-18 11:26 63.23332 25.37370 37368 ft 484 kts 181°
2026-04-18 11:27 63.17728 25.37072 37366 ft 484 kts 181°
2026-04-18 11:27 63.10982 25.36728 37368 ft 484 kts 181°
2026-04-18 11:28 63.04242 25.36390 37367 ft 484 kts 181°
2026-04-18 11:28 62.97504 25.36053 37360 ft 484 kts 181°
2026-04-18 11:29 62.90761 25.35694 37360 ft 485 kts 181°
2026-04-18 11:29 62.84020 25.35349 37362 ft 485 kts 181°
2026-04-18 11:30 62.77274 25.35030 37363 ft 485 kts 181°
2026-04-18 11:30 62.70529 25.34711 37352 ft 484 kts 181°
2026-04-18 11:31 62.63783 25.34374 37327 ft 485 kts 181°
2026-04-18 11:31 62.57038 25.34016 37330 ft 485 kts 181°
2026-04-18 11:32 62.50285 25.33668 37335 ft 485 kts 181°
2026-04-18 11:32 62.43528 25.33358 37334 ft 485 kts 181°
2026-04-18 11:33 62.36760 25.33064 36954 ft 487 kts 181°
2026-04-18 11:33 62.33366 25.32916 36700 ft 488 kts 181°
2026-04-18 11:33 62.29971 25.32763 36447 ft 488 kts 181°
2026-04-18 11:34 62.26582 25.32602 35813 ft 488 kts 181°
2026-04-18 11:34 62.23221 25.32431 35053 ft 490 kts 181°
2026-04-18 11:34 62.19786 25.32255 34052 ft 497 kts 181°
2026-04-18 11:34 62.16309 25.32085 33004 ft 502 kts 181°
2026-04-18 11:35 62.12811 25.31918 32022 ft 504 kts 181°
2026-04-18 11:35 62.09320 25.31753 31490 ft 496 kts 181°
2026-04-18 11:35 62.05893 25.31589 30957 ft 491 kts 181°
2026-04-18 11:35 62.02486 25.31427 30285 ft 487 kts 181°
2026-04-18 11:36 61.99119 25.31272 29709 ft 481 kts 182°
2026-04-18 11:36 61.95797 25.31120 29149 ft 474 kts 182°
2026-04-18 11:36 61.92520 25.30966 28602 ft 467 kts 182°
2026-04-18 11:36 61.89290 25.30809 28055 ft 461 kts 182°
2026-04-18 11:37 61.86100 25.30656 27514 ft 455 kts 182°
2026-04-18 11:37 61.82950 25.30505 26992 ft 449 kts 182°
2026-04-18 11:37 61.79844 25.30361 26474 ft 444 kts 181°
2026-04-18 11:37 61.76772 25.30223 25969 ft 438 kts 181°
2026-04-18 11:38 61.73785 25.30089 25491 ft 432 kts 181°
2026-04-18 11:38 61.70805 25.29956 25008 ft 425 kts 181°
2026-04-18 11:38 61.67870 25.29821 24472 ft 420 kts 182°
2026-04-18 11:38 61.64928 25.29682 23656 ft 424 kts 182°
2026-04-18 11:39 61.61989 25.29545 22924 ft 421 kts 182°
2026-04-18 11:39 61.59067 25.29405 22276 ft 418 kts 182°
2026-04-18 11:39 61.56172 25.29268 21669 ft 414 kts 182°
2026-04-18 11:39 61.53306 25.29136 21090 ft 410 kts 181°
2026-04-18 11:40 61.50466 25.29002 20532 ft 406 kts 181°
2026-04-18 11:40 61.47654 25.28867 19988 ft 403 kts 181°
2026-04-18 11:40 61.44863 25.28733 19450 ft 399 kts 181°
2026-04-18 11:40 61.42094 25.28601 18940 ft 396 kts 181°
2026-04-18 11:41 61.39349 25.28471 18411 ft 393 kts 181°
2026-04-18 11:41 61.36624 25.28346 17827 ft 390 kts 181°
2026-04-18 11:41 61.33924 25.28226 17324 ft 386 kts 181°
2026-04-18 11:41 61.31247 25.28108 16815 ft 383 kts 181°
2026-04-18 11:42 61.28597 25.27989 16327 ft 379 kts 181°
2026-04-18 11:42 61.25973 25.27873 15845 ft 375 kts 181°
2026-04-18 11:42 61.23410 25.27760 15375 ft 371 kts 181°
2026-04-18 11:42 61.20806 25.27642 14900 ft 368 kts 181°
2026-04-18 11:43 61.18289 25.27527 14446 ft 364 kts 181°
2026-04-18 11:43 61.15769 25.27407 13994 ft 361 kts 181°
2026-04-18 11:43 61.13269 25.27286 13482 ft 357 kts 181°
2026-04-18 11:43 61.10793 25.27170 12969 ft 354 kts 181°
2026-04-18 11:44 61.08346 25.27060 12472 ft 350 kts 181°
2026-04-18 11:44 61.05918 25.26953 11972 ft 347 kts 181°
2026-04-18 11:44 61.03512 25.26855 11474 ft 345 kts 181°
2026-04-18 11:44 61.01115 25.26758 11215 ft 345 kts 181°
2026-04-18 11:45 60.98718 25.26656 10956 ft 343 kts 181°
2026-04-18 11:45 60.96336 25.26552 10705 ft 342 kts 181°
2026-04-18 11:45 60.93992 25.26485 10451 ft 331 kts 179°
2026-04-18 11:45 60.91733 25.26565 10283 ft 319 kts 178°
2026-04-18 11:46 60.89569 25.26724 10273 ft 307 kts 177°
2026-04-18 11:46 60.87443 25.26911 10165 ft 303 kts 177°
2026-04-18 11:46 60.85341 25.27091 9748 ft 301 kts 177°
2026-04-18 11:46 60.83256 25.27257 9348 ft 299 kts 178°
2026-04-18 11:47 60.81217 25.27405 8949 ft 296 kts 178°
2026-04-18 11:47 60.79163 25.27542 8577 ft 293 kts 178°
2026-04-18 11:47 60.77132 25.27673 8208 ft 291 kts 178°
2026-04-18 11:47 60.75120 25.27796 7818 ft 288 kts 178°
2026-04-18 11:48 60.73118 25.27917 7448 ft 286 kts 179°
2026-04-18 11:48 60.71145 25.27716 7092 ft 282 kts 191°
2026-04-18 11:48 60.69289 25.26537 6722 ft 279 kts 207°
2026-04-18 11:48 60.67661 25.24459 6326 ft 275 kts 222°
2026-04-18 11:49 60.66332 25.21689 5923 ft 272 kts 230°
2026-04-18 11:49 60.65061 25.18808 5471 ft 274 kts 229°
2026-04-18 11:49 60.63782 25.15941 5044 ft 274 kts 228°
2026-04-18 11:49 60.62378 25.13362 4715 ft 272 kts 208°
2026-04-18 11:50 60.60588 25.12291 4446 ft 269 kts 179°
2026-04-18 11:50 60.58795 25.13062 4183 ft 263 kts 150°
2026-04-18 11:50 60.57261 25.15050 3927 ft 261 kts 141°
2026-04-18 11:50 60.55816 25.17173 3699 ft 255 kts 141°
2026-04-18 11:51 60.54420 25.19256 3571 ft 244 kts 140°
2026-04-18 11:51 60.53073 25.21252 3436 ft 234 kts 141°
2026-04-18 11:51 60.51802 25.23138 3326 ft 219 kts 140°
2026-04-18 11:51 60.50585 25.24901 3200 ft 211 kts 141°
2026-04-18 11:52 60.49409 25.26621 3081 ft 207 kts 140°
2026-04-18 11:52 60.48124 25.27926 2996 ft 210 kts 168°
2026-04-18 11:52 60.46681 25.27571 3005 ft 213 kts 205°
2026-04-18 11:52 60.45529 25.25672 3014 ft 216 kts 228°
2026-04-18 11:53 60.44528 25.23394 3013 ft 215 kts 229°
2026-04-18 11:53 60.43526 25.21125 3008 ft 218 kts 229°
2026-04-18 11:53 60.42513 25.18861 2958 ft 214 kts 228°
2026-04-18 11:53 60.41532 25.16674 2713 ft 206 kts 228°
2026-04-18 11:54 60.40576 25.14548 2435 ft 202 kts 227°
2026-04-18 11:54 60.39641 25.12470 2159 ft 197 kts 227°
2026-04-18 11:54 60.38740 25.10470 1891 ft 193 kts 226°
2026-04-18 11:54 60.37862 25.08520 1637 ft 180 kts 226°
2026-04-18 11:55 60.37044 25.06706 1391 ft 166 kts 225°
2026-04-18 11:55 60.36296 25.05047 1149 ft 154 kts 225°
2026-04-18 11:55 60.35601 25.03511 919 ft 146 kts 225°
2026-04-18 11:55 60.34933 25.02028 728 ft 140 kts 225°
2026-04-18 11:56 60.34278 25.00571 547 ft 139 kts 223°
2026-04-18 11:56 60.33636 24.99152 359 ft 134 kts 224°
2026-04-18 11:56 60.33018 24.97792 194 ft 130 kts 224°
2026-04-18 11:56 60.32466 24.96597 175 ft 91 kts 227°
2026-04-18 11:57 60.32160 24.95920 177 ft 36 kts 229°
2026-04-18 11:57 60.32033 24.95707 173 ft 23 kts 201°
2026-04-18 11:57 60.31930 24.95637 172 ft 12 kts 198°
2026-04-18 11:57 60.31860 24.95594 170 ft 8 kts 193°
2026-04-18 11:58 60.31815 24.95638 170 ft 7 kts 116°
2026-04-18 11:58 60.31838 24.95760 169 ft 15 kts 49°
2026-04-18 11:58 60.31908 24.95914 170 ft 14 kts 49°
2026-04-18 11:58 60.31919 24.96048 167 ft 12 kts 133°
2026-04-18 11:59 60.31868 24.96129 167 ft 9 kts 150°
2026-04-18 11:59 60.31833 24.96170 167 ft 5 kts 144°
2026-04-18 11:59 60.31807 24.96215 167 ft 5 kts 136°
2026-04-18 11:59 60.31787 24.96253 167 ft 3 kts 137°
2026-04-18 12:00 60.31781 24.96264 167 ft 1 kts 137°